User: anonymous   Login
Location: Hamburg
(53.5511°N, 9.9937°E)
Time: 11:25:48
(UTC+02:00)
Language:

ISS - Orbit

View from above orbital plane
View from above orbital plane
View from above satellite
View from above satellite

Ground track
Ground track

The orbit data is extracted from the following two-line orbital elements,

1 25544U 98067A   20189.72408902  .00016717  00000-0  10270-3 0  9054
2 25544  51.6388 246.8291 0002861  85.0062 275.1414 15.49184449 35194
Epoch (UTC): 07 July 2020 17:22:41
Eccentricity: 0.0002861
inclination: 51.6388°
perigee height: 417 km
apogee height: 421 km
right ascension of ascending node: 246.8291°
argument of perigee: 85.0062°
revolutions per day: 15.49184449
mean anomaly at epoch: 275.1414°
orbit number at epoch: 3519

The dashed part of the orbit path shows where the satellite is in the earth's shadow,  

DLR